Oconto, WI

7:00 AM CDT on August 27, 2016 (GMT -0500)
Oconto Municipal

Weather History for KOCQ - April, 2013

Change the Weather History Date:

Thursday, April 25, 2013

  Actual Average Record
Temperature  
Mean Temperature 40 °F -  
Max Temperature 52 °F 57 °F 59 °F (2014)
Min Temperature 28 °F 35 °F 28 °F (2013)
Degree Days  
Heating Degree Days 24    
Moisture  
Dew Point 28 °F    
Average Humidity 61    
Maximum Humidity 92    
Minimum Humidity 32    
Precipitation  
Precipitation 0.00 in - - ()
Sea Level Pressure  
Sea Level Pressure 30.07 in    
Wind  
Wind Speed 9 mph (West)    
Max Wind Speed 17 mph    
Max Gust Speed 32 mph    
Visibility 10 miles    
Events      
Averages and records for this station are not official NWS values.
T = Trace of Precipitation, MM = Missing Value Source: NWS Daily Summary

Daily Weather History Graph

Daily Weather History Graph

Search for Another Location

Airport or City:

Trip Planner

Search our weather history database for the weather conditions in past years. The results will help you decide how hot, cold, wet, or windy it might be!

Date:

Astronomy

Apr. 25, 2013 Rise Set
Actual Time 5:50 AM CDT 7:49 PM CDT
Civil Twilight 5:18 AM CDT 8:21 PM CDT
Nautical Twilight 4:39 AM CDT 9:00 PM CDT
Astronomical Twilight 3:57 AM CDT 9:43 PM CDT
Moon 8:04 PM CDT (4/25) 5:33 AM CDT (4/25)
Length of Visible Light 15h 03m
Length of Day
13h 59m
Full, 100% of the Moon is Illuminated
Apr 25
Full
Apr 25
Full
May 2
Last Quarter
May 9
New
May 17
First Quarter

Hourly Weather History & Observations

Time (CDT) Temp. Windchill Dew Point Humidity Pressure Visibility Wind Dir Wind Speed Gust Speed Precip Events Conditions
12:15 AM 43.0 °F 40.3 °F 29.5 °F 59% 29.90 in 10.0 mi South 4.6 mph - N/A   Overcast
12:35 AM 43.2 °F 39.0 °F 29.5 °F 59% 29.89 in 10.0 mi SSW 6.9 mph - N/A   Overcast
12:55 AM 44.1 °F 40.8 °F 28.4 °F 54% 29.89 in 10.0 mi SSW 5.8 mph - N/A   Overcast
1:15 AM 44.8 °F 37.7 °F 29.1 °F 54% 29.89 in 10.0 mi SW 16.1 mph 25.3 mph N/A   Overcast
1:35 AM 43.0 °F 38.8 °F 32.0 °F 65% 29.88 in 10.0 mi SW 6.9 mph 19.6 mph N/A   Overcast
1:55 AM 43.2 °F 35.6 °F 32.0 °F 65% 29.87 in 10.0 mi SSW 16.1 mph 19.6 mph N/A   Overcast
2:15 AM 42.8 °F 37.5 °F 32.0 °F 66% 29.86 in 10.0 mi SSW 9.2 mph 24.2 mph N/A   Overcast
2:35 AM 41.9 °F 35.4 °F 32.4 °F 69% 29.86 in 10.0 mi SW 11.5 mph - N/A   Overcast
2:55 AM 41.9 °F 36.3 °F 32.5 °F 69% 29.85 in 10.0 mi SW 9.2 mph - N/A   Overcast
3:15 AM 37.6 °F 29.1 °F 34.5 °F 89% 29.86 in 5.0 mi WSW 13.8 mph 32.2 mph N/A   Overcast
3:35 AM 37.4 °F 27.8 °F 34.0 °F 87% 29.87 in 10.0 mi West 17.3 mph 23.0 mph N/A   Overcast
3:55 AM 36.9 °F 28.7 °F 33.3 °F 87% 29.89 in 10.0 mi WNW 12.7 mph 21.9 mph N/A   Overcast
4:15 AM 36.0 °F 29.0 °F 32.5 °F 87% 29.89 in 10.0 mi WNW 9.2 mph 17.3 mph N/A   Mostly Cloudy
4:35 AM 35.8 °F 29.4 °F 32.5 °F 88% 29.91 in 10.0 mi WNW 8.1 mph - N/A   Mostly Cloudy
4:55 AM 34.9 °F 27.7 °F 32.0 °F 89% 29.92 in 10.0 mi West 9.2 mph - N/A   Scattered Clouds
5:15 AM 34.3 °F 27.0 °F 32.0 °F 91% 29.92 in 10.0 mi West 9.2 mph - N/A   Clear
5:35 AM 33.8 °F 27.0 °F 31.6 °F 92% 29.93 in 10.0 mi West 8.1 mph - N/A   Clear
5:55 AM 33.8 °F 26.4 °F 31.5 °F 91% 29.93 in 10.0 mi West 9.2 mph - N/A   Clear
6:15 AM 34.0 °F 26.0 °F 31.1 °F 89% 29.94 in 10.0 mi West 10.4 mph - N/A   Clear
6:35 AM 34.7 °F 26.4 °F 31.1 °F 87% 29.96 in 10.0 mi West 11.5 mph - N/A   Scattered Clouds
6:55 AM 35.4 °F 26.8 °F 31.1 °F 84% 29.97 in 10.0 mi West 12.7 mph 18.4 mph N/A   Scattered Clouds
7:15 AM 36.5 °F 28.2 °F 31.1 °F 81% 29.98 in 10.0 mi West 12.7 mph 18.4 mph N/A   Clear
7:35 AM 37.4 °F 28.9 °F 31.6 °F 80% 29.99 in 10.0 mi WNW 13.8 mph 19.6 mph N/A   Clear
7:55 AM 38.1 °F 29.8 °F 31.3 °F 76% 30.00 in 10.0 mi WNW 13.8 mph 18.4 mph N/A   Clear
8:15 AM 39.2 °F 32.0 °F 31.3 °F 73% 30.01 in 10.0 mi West 11.5 mph 16.1 mph N/A   Clear
8:35 AM 40.3 °F 34.4 °F 30.2 °F 67% 30.02 in 10.0 mi WNW 9.2 mph 18.4 mph N/A   Clear
8:55 AM 40.6 °F 34.3 °F 29.3 °F 64% 30.03 in 10.0 mi NW 10.4 mph 18.4 mph N/A   Clear
9:15 AM 41.9 °F 35.0 °F 30.4 °F 64% 30.04 in 10.0 mi WNW 12.7 mph 18.4 mph N/A   Scattered Clouds
9:35 AM 40.8 °F 34.1 °F 28.9 °F 63% 30.05 in 10.0 mi NW 11.5 mph 19.6 mph N/A   Mostly Cloudy
9:55 AM 42.4 °F 35.7 °F 29.3 °F 60% 30.06 in 10.0 mi NW 12.7 mph 19.6 mph N/A   Mostly Cloudy
10:15 AM 43.2 °F 37.4 °F 28.4 °F 56% 30.07 in 10.0 mi NW 10.4 mph 18.4 mph N/A   Mostly Cloudy
10:35 AM 45.1 °F 39.1 °F 29.1 °F 54% 30.08 in 10.0 mi WNW 12.7 mph 19.6 mph N/A   Mostly Cloudy
10:55 AM 43.7 °F 38.1 °F 27.5 °F 53% 30.09 in 10.0 mi NW 10.4 mph 21.9 mph N/A   Mostly Cloudy
11:15 AM 45.9 °F 39.7 °F 27.1 °F 48% 30.09 in 10.0 mi NW 13.8 mph 18.4 mph N/A   Scattered Clouds
11:35 AM 46.0 °F 40.2 °F 27.1 °F 48% 30.10 in 10.0 mi NW 12.7 mph 17.3 mph N/A   Scattered Clouds
11:55 AM 46.4 °F 41.1 °F 26.6 °F 46% 30.11 in 10.0 mi WNW 11.5 mph - N/A   Mostly Cloudy
12:15 PM 46.2 °F 41.7 °F 26.8 °F 47% 30.11 in 10.0 mi WNW 9.2 mph 19.6 mph N/A   Mostly Cloudy
12:35 PM 47.3 °F - 26.1 °F 44% 30.11 in 10.0 mi WNW 9.2 mph 23.0 mph N/A   Mostly Cloudy
12:55 PM 49.1 °F - 26.2 °F 41% 30.12 in 10.0 mi WNW 9.2 mph - N/A   Mostly Cloudy
1:15 PM 47.1 °F - 24.8 °F 42% 30.13 in 10.0 mi WNW 6.9 mph 16.1 mph N/A   Mostly Cloudy
1:35 PM 47.7 °F - 26.1 °F 43% 30.13 in 10.0 mi West 10.4 mph 16.1 mph N/A   Mostly Cloudy
1:55 PM 48.6 °F - 25.3 °F 40% 30.14 in 10.0 mi West 11.5 mph 17.3 mph N/A   Mostly Cloudy
2:15 PM 48.6 °F - 24.6 °F 39% 30.14 in 10.0 mi West 15.0 mph 18.4 mph N/A   Mostly Cloudy
2:35 PM 48.9 °F - 24.6 °F 39% 30.14 in 10.0 mi West 11.5 mph 20.7 mph N/A   Mostly Cloudy
2:55 PM 50.5 °F - 23.2 °F 34% 30.14 in 10.0 mi West 16.1 mph - N/A   Mostly Cloudy
3:15 PM 48.6 °F - 22.3 °F 36% 30.15 in 10.0 mi WNW 8.1 mph - N/A   Overcast
3:35 PM 50.4 °F - 21.6 °F 32% 30.15 in 10.0 mi WNW 11.5 mph 20.7 mph N/A   Mostly Cloudy
3:55 PM 52.0 °F - 23.4 °F 33% 30.15 in 10.0 mi West 12.7 mph 18.4 mph N/A   Mostly Cloudy
4:15 PM 50.9 °F - 23.4 °F 34% 30.15 in 10.0 mi WNW 12.7 mph 23.0 mph N/A   Scattered Clouds
4:35 PM 51.4 °F - 24.1 °F 34% 30.15 in 10.0 mi West 11.5 mph 17.3 mph N/A   Mostly Cloudy
4:55 PM 51.1 °F - 23.5 °F 34% 30.16 in 10.0 mi West 16.1 mph 20.7 mph N/A   Mostly Cloudy
5:15 PM 48.6 °F - 24.8 °F 39% 30.16 in 10.0 mi West 12.7 mph - N/A   Scattered Clouds
5:35 PM 49.8 °F - 24.1 °F 37% 30.17 in 10.0 mi West 8.1 mph 11.5 mph N/A   Scattered Clouds
5:55 PM 50.0 °F - 24.3 °F 37% 30.17 in 10.0 mi West 10.4 mph 17.3 mph N/A   Scattered Clouds
6:15 PM 49.1 °F - 23.7 °F 37% 30.18 in 10.0 mi WSW 11.5 mph 17.3 mph N/A   Scattered Clouds
6:35 PM 48.2 °F - 23.0 °F 37% 30.18 in 10.0 mi WSW 11.5 mph - N/A   Clear
6:55 PM 47.7 °F - 23.4 °F 38% 30.19 in 10.0 mi WSW 6.9 mph - N/A   Clear
7:15 PM 46.8 °F - 24.3 °F 41% 30.19 in 10.0 mi WSW 8.1 mph - N/A   Clear
7:35 PM 45.1 °F 42.8 °F 25.5 °F 46% 30.19 in 10.0 mi WSW 4.6 mph - N/A   Clear
7:55 PM 44.2 °F - 25.5 °F 48% 30.19 in 10.0 mi Calm Calm - N/A   Clear
8:15 PM 39.2 °F - 25.5 °F 58% 30.19 in 10.0 mi Calm Calm - N/A   Clear
8:35 PM 37.9 °F - 25.9 °F 62% 30.20 in 10.0 mi Calm Calm - N/A   Clear
8:55 PM 37.6 °F - 27.3 °F 66% 30.21 in 10.0 mi Calm Calm - N/A   Clear
9:15 PM 36.3 °F - 27.3 °F 70% 30.21 in 10.0 mi Calm Calm - N/A   Clear
9:35 PM 33.8 °F - 28.8 °F 82% 30.22 in 10.0 mi Calm Calm - N/A   Clear
9:55 PM 33.3 °F - 26.6 °F 77% 30.22 in 10.0 mi Calm Calm - N/A   Clear
10:15 PM 32.2 °F - 28.4 °F 86% 30.23 in 10.0 mi Calm Calm - N/A   Clear
10:35 PM 31.8 °F - 27.0 °F 82% 30.23 in 10.0 mi Calm Calm - N/A   Clear
10:55 PM 30.9 °F - 28.6 °F 91% 30.24 in 10.0 mi Calm Calm - N/A   Clear
11:15 PM 30.4 °F - 25.3 °F 82% 30.25 in 10.0 mi Calm Calm - N/A   Clear
11:35 PM 29.8 °F - 27.3 °F 90% 30.25 in 10.0 mi Calm Calm - N/A   Clear
11:55 PM 28.9 °F - 25.9 °F 88% 30.25 in 10.0 mi Calm Calm - N/A   Clear